| time (UTC) | temp F | wind direction | speed knots | gust knots | rain 1hr in | rain 24hr in | rain mn in | humidity % | barometer mb |
| 20260505124516 | 71 | 193 | 0.0 | 4.3 | 0.00 | 0.00 | 0.00 | 100 | 1008.6 |
| 20260505123029 | 71 | 172 | 0.9 | 7.8 | 0.00 | 0.00 | 0.00 | 100 | 1008.2 |
| 20260505121520 | 71 | 171 | 0.0 | 7.0 | 0.00 | 0.00 | 0.00 | 100 | 1008.2 |
| 20260505120024 | 71 | 162 | 0.0 | 4.3 | 0.00 | 0.00 | 0.00 | 100 | 1007.9 |
| 20260505114520 | 71 | 174 | 0.0 | 6.1 | 0.00 | 0.00 | 0.00 | 100 | 1007.7 |
| 20260505113018 | 71 | 165 | 0.0 | 7.0 | 0.00 | 0.00 | 0.00 | 100 | 1007.8 |
| 20260505111522 | 70 | 160 | 0.0 | 5.2 | 0.00 | 0.00 | 0.00 | 100 | 1007.8 |
| 20260505101509 | 70 | 167 | 1.7 | 8.7 | 0.00 | 0.00 | 0.00 | 100 | 1007.7 |
| 20260505100014 | 70 | 192 | 0.0 | 6.1 | 0.00 | 0.00 | 0.00 | 100 | 1007.7 |
| 20260505094509 | 69 | 169 | 0.9 | 11.3 | 0.00 | 0.00 | 0.00 | 100 | 1007.7 |
| 20260505093016 | 69 | 181 | 0.0 | 7.0 | 0.00 | 0.00 | 0.00 | 100 | 1007.8 |
| 20260505091502 | 69 | 246 | 0.0 | 6.1 | 0.00 | 0.00 | 0.00 | 100 | 1008.2 |
| 20260505090003 | 69 | 171 | 0.0 | 7.0 | 0.00 | 0.00 | 0.00 | 100 | 1008.3 |
| 20260505084508 | 69 | 158 | 0.9 | 11.3 | 0.00 | 0.00 | 0.00 | 100 | 1008.4 |
| 20260505083012 | 69 | 189 | 0.9 | 9.6 | 0.00 | 0.00 | 0.00 | 100 | 1008.5 |
| 20260505081514 | 69 | 169 | 0.9 | 5.2 | 0.00 | 0.00 | 0.00 | 100 | 1008.7 |
| 20260505080004 | 69 | 163 | 0.0 | 3.5 | 0.00 | 0.00 | 0.00 | 100 | 1008.7 |
| 20260505074504 | 69 | 196 | 0.0 | 4.3 | 0.00 | 0.00 | 0.00 | 100 | 1008.7 |
| 20260505073027 | 69 | 247 | 0.0 | 6.1 | 0.00 | 0.00 | 0.00 | 100 | 1008.9 |
| 20260505071514 | 69 | 174 | 0.0 | 7.0 | 0.00 | 0.00 | 0.00 | 100 | 1009.1 |
| 20260505070020 | 69 | 168 | 0.0 | 5.2 | 0.00 | 0.00 | 0.00 | 100 | 1009.3 |
| 20260505064503 | 69 | 176 | 0.0 | 5.2 | 0.00 | 0.00 | 0.00 | 100 | 1009.4 |
| 20260505063007 | 69 | 182 | 0.0 | 2.6 | 0.00 | 0.00 | 0.00 | 100 | 1009.6 |
| 20260505061520 | 69 | 168 | 0.0 | 6.1 | 0.00 | 0.00 | 0.00 | 100 | 1009.6 |
| 20260505060016 | 69 | 168 | 0.0 | 2.6 | 0.00 | 0.00 | 0.00 | 100 | 1009.5 |
| 20260505054520 | 69 | 163 | 0.0 | 5.2 | 0.00 | 0.00 | 0.00 | 100 | 1009.7 |
| 20260505053004 | 69 | 164 | 0.0 | 2.6 | 0.00 | 0.00 | 0.00 | 100 | 1009.6 |
| 20260505051526 | 69 | 157 | 0.0 | 3.5 | 0.00 | 0.00 | 0.00 | 100 | 1009.9 |
| 20260505041509 | 70 | 160 | 0.0 | 5.2 | 0.00 | 0.00 | 0.00 | 100 | 1010.0 |
| 20260505040014 | 70 | 146 | 0.9 | 9.6 | 0.00 | 0.00 | 0.00 | 100 | 1010.2 |
| 20260505034514 | 70 | 178 | 0.0 | 6.1 | 0.00 | 0.00 | 0.00 | 100 | 1010.0 |
| 20260505033022 | 70 | 147 | 0.0 | 5.2 | 0.00 | 0.00 | 0.00 | 100 | 1009.8 |
| 20260505031531 | 70 | 148 | 0.0 | 3.5 | 0.00 | 0.00 | 0.00 | 4 | 1009.7 |
| 20260505030009 | 70 | 147 | 0.0 | 0.0 | 0.00 | 0.00 | 0.00 | 10 | 1009.5 |
| 20260505024516 | 71 | 147 | 0.0 | 0.0 | 0.00 | 0.00 | 0.00 | 20 | 1009.5 |
| 20260505023022 | 71 | 146 | 0.0 | 3.5 | 0.00 | 0.00 | 0.00 | 25 | 1009.7 |
| 20260505021526 | 72 | 176 | 0.0 | 0.0 | 0.00 | 0.00 | 0.00 | 35 | 1009.7 |
| 20260505020030 | 73 | 176 | 0.0 | 0.0 | 0.00 | 0.00 | 0.00 | 47 | 1009.5 |
| 20260505014513 | 74 | 176 | 0.0 | 0.0 | 0.00 | 0.00 | 0.00 | 52 | 1009.4 |
| 20260505013022 | 74 | 176 | 0.0 | 0.0 | 0.00 | 0.00 | 0.00 | 52 | 1009.2 |
| 20260505011526 | 75 | 176 | 0.0 | 0.0 | 0.00 | 0.00 | 0.00 | 54 | 1009.1 |
| 20260505010016 | 75 | 176 | 0.0 | 2.6 | 0.00 | 0.00 | 0.00 | 55 | 1009.0 |
| 20260505004512 | 76 | 172 | 0.0 | 2.6 | 0.00 | 0.00 | 0.00 | 56 | 1009.0 |
| 20260505003015 | 76 | 172 | 0.0 | 0.9 | 0.00 | 0.00 | 0.00 | 56 | 1009.1 |
| 20260505001503 | 77 | 172 | 0.0 | 2.6 | 0.00 | 0.00 | 0.00 | 56 | 1009.2 |
| 20260505000007 | 77 | 166 | 0.9 | 4.3 | 0.00 | 0.00 | 0.00 | 55 | 1009.1 |
| 20260504234507 | 78 | 185 | 0.0 | 0.0 | 0.00 | 0.00 | 0.00 | 55 | 1009.5 |
| 20260504233013 | 78 | 157 | 0.0 | 7.8 | 0.00 | 0.00 | 0.00 | 53 | 1009.4 |
| 20260504231519 | 79 | 174 | 0.9 | 9.6 | 0.00 | 0.00 | 0.00 | 52 | 1009.6 |
| 20260504230005 | 80 | 160 | 1.7 | 9.6 | 0.00 | 0.00 | 0.00 | 51 | 1009.7 |
| 20260504224506 | 80 | 164 | 0.9 | 9.6 | 0.00 | 0.00 | 0.00 | 50 | 1009.9 |
| 20260504223012 | 81 | 170 | 0.0 | 6.1 | 0.00 | 0.00 | 0.00 | 49 | 1010.0 |
| 20260504221535 | 81 | 151 | 2.6 | 11.3 | 0.00 | 0.00 | 0.00 | 48 | 1010.2 |
| 20260504220023 | 81 | 209 | 0.9 | 10.4 | 0.00 | 0.00 | 0.00 | 48 | 1010.2 |
| 20260504214504 | 81 | 179 | 1.7 | 11.3 | 0.00 | 0.00 | 0.00 | 47 | 1010.6 |
| 20260504213008 | 81 | 269 | 0.9 | 10.4 | 0.00 | 0.00 | 0.00 | 46 | 1011.0 |
| 20260504211514 | 81 | 167 | 0.0 | 7.8 | 0.00 | 0.00 | 0.00 | 47 | 1011.1 |
| 20260504210022 | 81 | 193 | 2.6 | 8.7 | 0.00 | 0.00 | 0.00 | 48 | 1011.5 |
| 20260504204528 | 81 | 167 | 0.0 | 7.0 | 0.00 | 0.00 | 0.00 | 47 | 1012.0 |
| 20260504203008 | 80 | 157 | 2.6 | 10.4 | 0.00 | 0.00 | 0.00 | 46 | 1012.1 |
| 20260504201512 | 81 | 160 | 0.0 | 8.7 | 0.00 | 0.00 | 0.00 | 46 | 1012.3 |
| 20260504200018 | 80 | 164 | 1.7 | 7.8 | 0.00 | 0.00 | 0.00 | 45 | 1012.7 |
| 20260504194529 | 80 | 170 | 0.0 | 9.6 | 0.00 | 0.00 | 0.00 | 46 | 1013.0 |
| 20260504193026 | 80 | 174 | 0.9 | 8.7 | 0.00 | 0.00 | 0.00 | 46 | 1013.2 |
| 20260504191507 | 79 | 195 | 1.7 | 9.6 | 0.00 | 0.00 | 0.00 | 47 | 1013.4 |
| 20260504190016 | 79 | 206 | 0.9 | 7.8 | 0.00 | 0.00 | 0.00 | 45 | 1013.6 |
| 20260504184519 | 79 | 150 | 2.6 | 10.4 | 0.00 | 0.00 | 0.00 | 46 | 1013.7 |
| 20260504183026 | 78 | 245 | 0.0 | 10.4 | 0.00 | 0.00 | 0.00 | 46 | 1014.1 |
| 20260504181527 | 78 | 153 | 1.7 | 11.3 | 0.00 | 0.00 | 0.00 | 47 | 1014.4 |
| 20260504180016 | 77 | 173 | 0.9 | 10.4 | 0.00 | 0.00 | 0.00 | 47 | 1014.4 |
| 20260504174518 | 77 | 193 | 2.6 | 11.3 | 0.00 | 0.00 | 0.00 | 48 | 1014.7 |
| 20260504173022 | 77 | 158 | 1.7 | 8.7 | 0.00 | 0.00 | 0.00 | 49 | 1015.2 |
| 20260504171530 | 76 | 152 | 2.6 | 10.4 | 0.00 | 0.00 | 0.00 | 49 | 1015.1 |